Tiempo cada hora Bartkowo

Hoy, 25 Febrero, Jueves

Tiempo Temperatura Precipitaciones Viento Presión Humedad
00:00 +10°C° 0 mm 3 mps 768 mmHg 91%
01:00 +10°C° 0 mm 2 mps 768 mmHg 89%
02:00 +9°C° 0 mm 2 mps 768 mmHg 90%
03:00 +9°C° 0 mm 2 mps 767 mmHg 90%
04:00 +9°C° 0 mm 3 mps 767 mmHg 91%
05:00 +8°C° 0 mm 3 mps 767 mmHg 91%
06:00 +8°C° 0 mm 3 mps 767 mmHg 92%
07:00 +8°C° 0 mm 3 mps 766 mmHg 92%
08:00 +9°C° 0 mm 3 mps 766 mmHg 88%
09:00 +11°C° 0 mm 3 mps 766 mmHg 84%
10:00 +12°C° 0 mm 3 mps 766 mmHg 80%
11:00 +13°C° 0 mm 4 mps 766 mmHg 76%
12:00 +14°C° 0 mm 4 mps 766 mmHg 72%
13:00 +17°C° 0 mm 4 mps 765 mmHg 67%
14:00 +17°C° 0 mm 3 mps 765 mmHg 68%
15:00 +17°C° 0 mm 3 mps 765 mmHg 69%
16:00 +16°C° 0 mm 3 mps 765 mmHg 70%
17:00 +14°C° 0 mm 3 mps 765 mmHg 76%
18:00 +13°C° 0 mm 3 mps 765 mmHg 81%
19:00 +12°C° 0 mm 3 mps 765 mmHg 87%
20:00 +11°C° 0 mm 3 mps 766 mmHg 88%
21:00 +10°C° 0 mm 3 mps 766 mmHg 89%
22:00 +10°C° 0 mm 3 mps 766 mmHg 91%
23:00 +9°C° 0 mm 3 mps 766 mmHg 92%

Mañana, 26 Febrero, Viernes

Tiempo Temperatura Precipitaciones Viento Presión Humedad
00:00 +8°C° 0 mm 3 mps 766 mmHg 93%
01:00 +8°C° 0 mm 3 mps 767 mmHg 94%
02:00 +7°C° 0.4 mm 3 mps 767 mmHg 92%
03:00 +7°C° 0.4 mm 2 mps 767 mmHg 91%
04:00 +7°C° 0.4 mm 2 mps 767 mmHg 90%
05:00 +7°C° 0.1 mm 2 mps 767 mmHg 88%
06:00 +7°C° 0.1 mm 2 mps 767 mmHg 87%
07:00 +6°C° 0.1 mm 2 mps 767 mmHg 85%
08:00 +7°C° 0 mm 3 mps 767 mmHg 81%
09:00 +6°C° 0 mm 4 mps 767 mmHg 76%
10:00 +7°C° 0 mm 4 mps 767 mmHg 72%
11:00 +7°C° 0 mm 5 mps 767 mmHg 69%
12:00 +8°C° 0 mm 5 mps 767 mmHg 65%
13:00 +8°C° 0 mm 6 mps 768 mmHg 62%
14:00 +8°C° 0 mm 6 mps 767 mmHg 63%
15:00 +8°C° 0 mm 6 mps 767 mmHg 64%
16:00 +8°C° 0 mm 6 mps 767 mmHg 66%
17:00 +7°C° 0 mm 5 mps 767 mmHg 71%
18:00 +6°C° 0 mm 4 mps 767 mmHg 75%
19:00 +5°C° 0 mm 3 mps 768 mmHg 80%
20:00 +4°C° 0 mm 4 mps 768 mmHg 81%
21:00 +4°C° 0 mm 4 mps 768 mmHg 82%
22:00 +3°C° 0 mm 5 mps 768 mmHg 82%
23:00 +3°C° 0 mm 5 mps 768 mmHg 84%

Pasado mañana, 27 Febrero, Sábado

Tiempo Temperatura Precipitaciones Viento Presión Humedad
00:00 +3°C° 0 mm 5 mps 768 mmHg 85%
01:00 +2°C° 0 mm 5 mps 769 mmHg 86%
02:00 +2°C° 0 mm 5 mps 769 mmHg 86%
03:00 +2°C° 0 mm 5 mps 769 mmHg 86%
04:00 +2°C° 0 mm 5 mps 769 mmHg 86%
05:00 +2°C° 0 mm 5 mps 769 mmHg 86%
06:00 +2°C° 0 mm 5 mps 769 mmHg 86%
07:00 +2°C° 0 mm 5 mps 770 mmHg 86%
08:00 +3°C° 0 mm 5 mps 770 mmHg 83%
09:00 +4°C° 0 mm 4 mps 770 mmHg 81%
10:00 +4°C° 0 mm 4 mps 771 mmHg 79%
11:00 +5°C° 0 mm 4 mps 771 mmHg 73%
12:00 +6°C° 0 mm 4 mps 771 mmHg 66%
13:00 +7°C° 0 mm 4 mps 772 mmHg 59%
14:00 +7°C° 0 mm 4 mps 772 mmHg 59%
15:00 +7°C° 0 mm 4 mps 772 mmHg 58%
16:00 +7°C° 0 mm 4 mps 772 mmHg 58%
17:00 +5°C° 0 mm 3 mps 772 mmHg 65%
18:00 +4°C° 0 mm 3 mps 772 mmHg 71%
19:00 +3°C° 0 mm 2 mps 772 mmHg 78%
20:00 +3°C° 0 mm 2 mps 772 mmHg 83%
21:00 +2°C° 0 mm 2 mps 772 mmHg 87%
22:00 +2°C° 0 mm 2 mps 773 mmHg 91%
23:00 +2°C° 0 mm 2 mps 773 mmHg 93%

28 Febrero, Domingo

Tiempo Temperatura Precipitaciones Viento Presión Humedad
00:00 +2°C° 0 mm 2 mps 773 mmHg 94%
01:00 +1°C° 0 mm 2 mps 773 mmHg 95%
02:00 +1°C° 0 mm 2 mps 772 mmHg 95%
03:00 +2°C° 0 mm 2 mps 772 mmHg 95%
04:00 +2°C° 0 mm 2 mps 772 mmHg 95%
05:00 +2°C° 0 mm 2 mps 772 mmHg 95%
06:00 +2°C° 0 mm 2 mps 772 mmHg 96%
07:00 +3°C° 0 mm 2 mps 772 mmHg 96%
08:00 +3°C° 0 mm 2 mps 772 mmHg 93%
09:00 +4°C° 0 mm 2 mps 772 mmHg 91%
10:00 +5°C° 0 mm 2 mps 772 mmHg 88%
11:00 +5°C° 0 mm 2 mps 772 mmHg 87%
12:00 +7°C° 0 mm 1 mps 772 mmHg 85%
13:00 +7°C° 0 mm 1 mps 773 mmHg 83%
14:00 +7°C° 0 mm 1 mps 772 mmHg 83%
15:00 +7°C° 0 mm 1 mps 772 mmHg 82%
16:00 +7°C° 0 mm 1 mps 772 mmHg 82%
17:00 +6°C° 0 mm 1 mps 772 mmHg 85%
18:00 +5°C° 0 mm 1 mps 772 mmHg 87%
19:00 +3°C° 0 mm 0 mps 772 mmHg 90%
20:00 +3°C° 0 mm 0 mps 773 mmHg 90%
21:00 +3°C° 0 mm 0 mps 773 mmHg 91%
22:00 +2°C° 0 mm 0 mps 773 mmHg 91%
23:00 +2°C° 0 mm 0 mps 773 mmHg 91%

1 Marzo, Lunes

Tiempo Temperatura Precipitaciones Viento Presión Humedad
00:00 +2°C° 0 mm 0 mps 773 mmHg 92%
01:00 +2°C° 0 mm 0 mps 774 mmHg 92%
02:00 +2°C° 0 mm 0 mps 773 mmHg 92%
03:00 +1°C° 0 mm 0 mps 773 mmHg 92%
04:00 +1°C° 0 mm 0 mps 773 mmHg 92%
05:00 +1°C° 0 mm 0 mps 773 mmHg 92%
06:00 +1°C° 0 mm 0 mps 773 mmHg 93%
07:00 +1°C° 0 mm 0 mps 773 mmHg 93%
08:00 +3°C° 0 mm 0 mps 774 mmHg 88%
09:00 +5°C° 0 mm 1 mps 774 mmHg 83%
10:00 +7°C° 0 mm 1 mps 774 mmHg 78%
11:00 +8°C° 0 mm 1 mps 774 mmHg 74%
12:00 +9°C° 0 mm 1 mps 774 mmHg 70%
13:00 +10°C° 0 mm 1 mps 774 mmHg 66%
14:00 +10°C° 0 mm 1 mps 773 mmHg 66%
15:00 +10°C° 0 mm 1 mps 773 mmHg 66%
16:00 +10°C° 0 mm 1 mps 773 mmHg 66%
17:00 +9°C° 0 mm 1 mps 773 mmHg 72%
18:00 +7°C° 0 mm 1 mps 773 mmHg 77%
19:00 +6°C° 0 mm 1 mps 773 mmHg 83%
20:00 +6°C° 0 mm 1 mps 773 mmHg 83%
21:00 +5°C° 0 mm 1 mps 773 mmHg 84%
22:00 +5°C° 0 mm 1 mps 773 mmHg 85%
23:00 +5°C° 0 mm 1 mps 773 mmHg 86%

2 Marzo, Martes

Tiempo Temperatura Precipitaciones Viento Presión Humedad
00:00 +5°C° 0 mm 1 mps 773 mmHg 87%
01:00 +3°C° 0 mm 2 mps 773 mmHg 88%
02:00 +3°C° 0 mm 2 mps 773 mmHg 88%
03:00 +3°C° 0 mm 2 mps 772 mmHg 88%
04:00 +2°C° 0 mm 2 mps 772 mmHg 89%
05:00 +3°C° 0 mm 1 mps 772 mmHg 88%
06:00 +3°C° 0 mm 1 mps 772 mmHg 88%
07:00 +3°C° 0 mm 1 mps 772 mmHg 88%
08:00 +4°C° 0 mm 1 mps 772 mmHg 82%
09:00 +6°C° 0 mm 1 mps 772 mmHg 75%
10:00 +8°C° 0 mm 1 mps 772 mmHg 69%
11:00 +8°C° 0 mm 2 mps 772 mmHg 64%
12:00 +9°C° 0 mm 2 mps 772 mmHg 59%
13:00 +12°C° 0 mm 2 mps 771 mmHg 53%
14:00 +12°C° 0 mm 2 mps 771 mmHg 55%
15:00 +12°C° 0 mm 2 mps 771 mmHg 56%
16:00 +12°C° 0 mm 2 mps 770 mmHg 57%
17:00 +9°C° 0 mm 2 mps 770 mmHg 61%
18:00 +8°C° 0 mm 2 mps 770 mmHg 66%
19:00 +6°C° 0 mm 2 mps 770 mmHg 70%
20:00 +6°C° 0 mm 2 mps 770 mmHg 72%
21:00 +5°C° 0 mm 2 mps 770 mmHg 74%
22:00 +5°C° 0 mm 2 mps 770 mmHg 76%
23:00 +4°C° 0 mm 2 mps 769 mmHg 78%
Mostrar más

Necesitamos Su Consentimiento

Meteoprog y nuestros Proveedores de Servicios pueden almacenar y acceder a sus datos personales como cookies, identificadores de dispositivo u otras tecnologías similares de su dispositivo y procesar dichos datos para personalizar contenido y anuncios, además de ofrecer funciones de redes sociales y analizar el tráfico.

  • Almacenar y/o acceder a información en su dispositivo

    Se puede almacenar o acceder a cookies, identificadores de dispositivo u otra información de su dispositivo para los fines anteriormente indicados.

  • Anuncios y contenido personalizados, medición de anuncios y contenido, percepciones del público, y desarrollo de productos

    Los anuncios y el contenido pueden personalizarse en base a su perfil. Se pueden añadir más datos para personalizar mejor los anuncios y contenidos. Se puede medir el rendimiento de los anuncios y contenidos. Se puede obtener la percepción sobre el público que ha visto los anuncios y contenidos. Dichos datos pueden usarse para desarrollar o mejorar la experiencia del usuario, sistemas y software.

Al hacer clic en ‘Estoy De Acuerdo’ usted permitirá el uso de las cookies, identificadores de dispositivo, balizas web u otras tecnologías similares indicadas. Su configuración puede cambiarse desde el navegador de su dispositivo.

Para ciertos fines, los intereses legítimos pueden ser considerados por encima del consentimiento. Puede leer más sobre ello en nuestra Política de Privacidad y Cookies.